| time (UTC) | temp F | wind direction | speed MPH | gust MPH | rain 1hr in | rain 24hr in | rain mn in | humidity % | barometer mb |
| 20260508140634 | 58 | 291 | 6.0 | 8.0 | 0.00 | 0.00 | 0.00 | 78 | 1026.8 |
| 20260508140130 | 58 | 291 | 6.0 | 8.0 | 0.00 | 0.00 | 0.00 | 78 | 1026.8 |
| 20260508135626 | 57 | 293 | 8.0 | 9.0 | 0.00 | 0.00 | 0.00 | 78 | 1026.6 |
| 20260508134242 | 55 | 290 | 6.0 | 7.0 | 0.00 | 0.00 | 0.00 | 80 | 1026.6 |
| 20260508133738 | 55 | 290 | 6.0 | 7.0 | 0.00 | 0.00 | 0.00 | 80 | 1026.6 |
| 20260508133236 | 55 | 298 | 6.0 | 7.0 | 0.00 | 0.00 | 0.00 | 80 | 1026.6 |
| 20260508132734 | 55 | 283 | 8.0 | 10.0 | 0.00 | 0.00 | 0.00 | 80 | 1026.5 |
| 20260508132231 | 55 | 272 | 8.0 | 9.0 | 0.00 | 0.00 | 0.00 | 81 | 1026.6 |
| 20260508131727 | 55 | 268 | 7.0 | 8.0 | 0.00 | 0.00 | 0.00 | 81 | 1026.4 |
| 20260508131223 | 55 | 284 | 8.0 | 10.0 | 0.00 | 0.00 | 0.00 | 80 | 1026.4 |
| 20260508130719 | 56 | 286 | 7.0 | 9.0 | 0.00 | 0.00 | 0.00 | 79 | 1026.5 |
| 20260508114155 | 56 | 275 | 11.0 | 13.0 | 0.00 | 0.00 | 0.00 | 77 | 1026.2 |
| 20260508113652 | 56 | 275 | 11.0 | 13.0 | 0.00 | 0.00 | 0.00 | 77 | 1026.2 |
| 20260508113150 | 56 | 291 | 10.0 | 11.0 | 0.00 | 0.00 | 0.00 | 77 | 1026.1 |
| 20260508112646 | 57 | 288 | 9.0 | 10.0 | 0.00 | 0.00 | 0.00 | 76 | 1026.1 |
| 20260508112143 | 56 | 295 | 11.0 | 11.0 | 0.00 | 0.00 | 0.00 | 78 | 1026.2 |
| 20260508111639 | 56 | 321 | 8.0 | 10.0 | 0.00 | 0.00 | 0.00 | 77 | 1026.0 |
| 20260508111137 | 56 | 301 | 9.0 | 13.0 | 0.00 | 0.00 | 0.00 | 77 | 1026.0 |
| 20260508110629 | 57 | 300 | 6.0 | 8.0 | 0.00 | 0.00 | 0.00 | 76 | 1026.2 |
| 20260508110125 | 57 | 296 | 9.0 | 10.0 | 0.00 | 0.00 | 0.00 | 74 | 1026.2 |
| 20260508105625 | 57 | 294 | 9.0 | 10.0 | 0.00 | 0.00 | 0.00 | 75 | 1026.2 |
| 20260508101211 | 57 | 289 | 8.0 | 9.0 | 0.00 | 0.00 | 0.00 | 74 | 1026.4 |
| 20260508100708 | 57 | 289 | 8.0 | 9.0 | 0.00 | 0.00 | 0.00 | 74 | 1026.4 |
| 20260508100206 | 57 | 300 | 7.0 | 8.0 | 0.00 | 0.00 | 0.00 | 74 | 1026.5 |
| 20260508095702 | 56 | 305 | 10.0 | 11.0 | 0.00 | 0.00 | 0.00 | 74 | 1026.4 |
| 20260508095200 | 57 | 302 | 8.0 | 10.0 | 0.00 | 0.00 | 0.00 | 74 | 1026.5 |
| 20260508094656 | 56 | 296 | 7.0 | 8.0 | 0.00 | 0.00 | 0.00 | 75 | 1026.2 |
| 20260508094153 | 56 | 299 | 7.0 | 7.0 | 0.00 | 0.00 | 0.00 | 75 | 1026.6 |
| 20260508093650 | 56 | 300 | 8.0 | 10.0 | 0.00 | 0.00 | 0.00 | 74 | 1026.4 |
| 20260508093148 | 57 | 303 | 10.0 | 11.0 | 0.00 | 0.00 | 0.00 | 73 | 1026.5 |
| 20260508092645 | 57 | 303 | 10.0 | 11.0 | 0.00 | 0.00 | 0.00 | 73 | 1026.5 |
| 20260508092143 | 57 | 293 | 9.0 | 9.0 | 0.00 | 0.00 | 0.00 | 73 | 1026.4 |
| 20260508091640 | 57 | 304 | 9.0 | 10.0 | 0.00 | 0.00 | 0.00 | 73 | 1026.5 |
| 20260508091137 | 56 | 301 | 8.0 | 8.0 | 0.00 | 0.00 | 0.00 | 74 | 1026.4 |
| 20260508090635 | 56 | 301 | 8.0 | 8.0 | 0.00 | 0.00 | 0.00 | 74 | 1026.4 |
| 20260508090132 | 56 | 305 | 10.0 | 13.0 | 0.00 | 0.00 | 0.00 | 74 | 1026.5 |
| 20260508085627 | 56 | 310 | 9.0 | 10.0 | 0.00 | 0.00 | 0.00 | 74 | 1026.4 |
| 20260508084056 | 56 | 311 | 6.0 | 7.0 | 0.00 | 0.00 | 0.00 | 73 | 1026.6 |
| 20260508083553 | 56 | 311 | 6.0 | 7.0 | 0.00 | 0.00 | 0.00 | 73 | 1026.6 |
| 20260508083050 | 56 | 298 | 7.0 | 8.0 | 0.00 | 0.00 | 0.00 | 73 | 1026.7 |
| 20260508082546 | 57 | 300 | 8.0 | 9.0 | 0.00 | 0.00 | 0.00 | 72 | 1026.6 |
| 20260508082043 | 57 | 303 | 9.0 | 11.0 | 0.00 | 0.00 | 0.00 | 72 | 1026.8 |
| 20260508081541 | 56 | 310 | 8.0 | 10.0 | 0.00 | 0.00 | 0.00 | 73 | 1026.6 |
| 20260508081036 | 56 | 301 | 7.0 | 8.0 | 0.00 | 0.00 | 0.00 | 73 | 1026.9 |
| 20260508080535 | 57 | 317 | 7.0 | 9.0 | 0.00 | 0.00 | 0.00 | 72 | 1026.8 |
| 20260508080031 | 57 | 291 | 7.0 | 8.0 | 0.00 | 0.00 | 0.00 | 71 | 1026.8 |
| 20260508075527 | 57 | 299 | 9.0 | 10.0 | 0.00 | 0.00 | 0.00 | 69 | 1027.0 |
| 20260508074431 | 58 | 312 | 10.0 | 13.0 | 0.00 | 0.00 | 0.00 | 70 | 1026.9 |
| 20260508073928 | 58 | 312 | 10.0 | 13.0 | 0.00 | 0.00 | 0.00 | 70 | 1026.9 |
| 20260508073425 | 58 | 312 | 10.0 | 13.0 | 0.00 | 0.00 | 0.00 | 70 | 1026.9 |
| 20260508063233 | 58 | 309 | 8.0 | 9.0 | 0.00 | 0.00 | 0.00 | 70 | 1026.8 |
| 20260508062730 | 58 | 309 | 8.0 | 9.0 | 0.00 | 0.00 | 0.00 | 70 | 1026.8 |
| 20260508062228 | 59 | 293 | 9.0 | 11.0 | 0.00 | 0.00 | 0.00 | 70 | 1026.7 |
| 20260508061724 | 59 | 301 | 7.0 | 8.0 | 0.00 | 0.00 | 0.00 | 70 | 1026.8 |
| 20260508061221 | 59 | 294 | 11.0 | 13.0 | 0.00 | 0.00 | 0.00 | 69 | 1026.8 |
| 20260508060718 | 59 | 299 | 7.0 | 8.0 | 0.00 | 0.00 | 0.00 | 69 | 1026.6 |
| 20260508060216 | 59 | 295 | 8.0 | 9.0 | 0.00 | 0.00 | 0.00 | 68 | 1026.7 |
| 20260508055711 | 59 | 279 | 9.0 | 10.0 | 0.00 | 0.00 | 0.00 | 67 | 1026.8 |
| 20260508055208 | 59 | 290 | 9.0 | 13.0 | 0.00 | 0.00 | 0.00 | 68 | 1026.7 |
| 20260508054704 | 59 | 298 | 8.0 | 9.0 | 0.00 | 0.00 | 0.00 | 68 | 1026.6 |
| 20260508054203 | 59 | 292 | 7.0 | 8.0 | 0.00 | 0.00 | 0.00 | 69 | 1026.8 |
| 20260508053659 | 59 | 303 | 9.0 | 10.0 | 0.00 | 0.00 | 0.00 | 69 | 1026.7 |
| 20260508053157 | 59 | 275 | 10.0 | 11.0 | 0.00 | 0.00 | 0.00 | 69 | 1026.7 |
| 20260508052654 | 59 | 290 | 10.0 | 13.0 | 0.00 | 0.00 | 0.00 | 69 | 1026.9 |
| 20260508052150 | 59 | 300 | 9.0 | 10.0 | 0.00 | 0.00 | 0.00 | 69 | 1026.8 |
| 20260508051647 | 59 | 294 | 9.0 | 11.0 | 0.00 | 0.00 | 0.00 | 70 | 1026.7 |
| 20260508051142 | 59 | 297 | 8.0 | 9.0 | 0.00 | 0.00 | 0.00 | 70 | 1026.6 |
| 20260508050638 | 59 | 289 | 9.0 | 11.0 | 0.00 | 0.00 | 0.00 | 69 | 1026.7 |
| 20260508050136 | 59 | 290 | 12.0 | 14.0 | 0.00 | 0.00 | 0.00 | 68 | 1026.8 |
| 20260508045632 | 59 | 293 | 9.0 | 10.0 | 0.00 | 0.00 | 0.00 | 68 | 1026.6 |
| 20260508045130 | 60 | 306 | 8.0 | 9.0 | 0.00 | 0.00 | 0.00 | 68 | 1026.8 |
| 20260508044626 | 60 | 294 | 11.0 | 14.0 | 0.00 | 0.00 | 0.00 | 66 | 1026.6 |
| 20260508044122 | 60 | 279 | 7.0 | 8.0 | 0.00 | 0.00 | 0.00 | 66 | 1026.6 |
| 20260508033636 | 61 | 285 | 8.0 | 10.0 | 0.00 | 0.00 | 0.00 | 63 | 1026.2 |
| 20260508033135 | 61 | 285 | 8.0 | 10.0 | 0.00 | 0.00 | 0.00 | 63 | 1026.2 |
| 20260508032630 | 61 | 285 | 8.0 | 10.0 | 0.00 | 0.00 | 0.00 | 63 | 1026.2 |